DECAYED

STARLINK-32280, 60736 (Decayed)

Orbit data source: Space-Track

STARLINK-32280, 60736 was a payload satellite owned by SpaceX/Seattle (US) in LEO that was launched on Wed, 28 Aug 2024 UTC via an FALCON 9 launch vehicle from the Air Force Eastern Test Range (AFETR). Payload-class satellites include a variety of spacecraft equipped with specific instruments for various scientific and technological missions. These include communications satellites like Starlink; space stations such as the ISS; scientific satellites like the Hubble; Earth observation satellites from companies like Planet Labs, Umbra, and HawkEye 360; GPS; miniature CubeSats for education and research; and military/defense satellites.

Loading next visibility...
Identifier
60736, 2024-152S
Orbit
Decayed
Country
Flag of USUS
Related business
Manufacturer
SpaceX/Seattle
Mission
Decayed Commercial Communications
Bus & Motor
STARLINK V2M, Unknown motor
Mass
730 kg wet, ~700 kg dry
Launch date (UTC)
2024-08-28 (1 year ago)
Launch vehicle
FALCON 9
Launch site
Air Force Eastern Test Range (AFETR)
Object type
Payload
Rocket body
Debris
Shape & HBR
Box + 2 Pan, 17.7 m
Radar Cross Section
33.884 m², Large (>1 m²)

Expand to show TLE details & history
Last TLE update: 4 months ago

TLE from 4 months ago
0 STARLINK-32280
1 60736U 24152S   25288.19612053 -.73062632  12904-4 -15491-1 0  9990
2 60736  53.1203 211.3399 0009218 183.0531 177.0457 16.29944754 64717
Epoch: 2025-10-15T04:42Z
TLE epoch observation values (Epoch: 2025-10-15T04:42:24.813Z)
Latitude
-0.00008°
Longitude
116.76278°
Altitude
199.671 km
Speed
7.784 km/s
True Right ascension
14h 05m 21s
True Declination
0° 00' 00"
Sunlit
Object was in daylight at epoch
Visualization orbit readout
Latitude
Unknown
Longitude
Unknown
Altitude
Unknown
Speed
Unknown
Apparent Right ascension
Unknown
Apparent Declination
Unknown
Sunlit
N/A
Visualization observer readout
Local Sidereal Time
13:43:43
Azimuth
Unknown
Elevation
Unknown
Doppler factor
Unknown
Orbital elements
Apogee altitude
199.019 km
Perigee altitude
186.905 km
Semi-major axis
6,571.099 km
Eccentricity
0.00092
Inclination
53.1203°
RAAN
211.3399°
Arg. of periapsis
183.0531°
True anomaly
177.05114°
Mean anomaly
177.0457°
Eccentric anomaly
177.04842°
Mean motion
4.07461 °/min
Orbital period
88.35 mins
BSTAR
-0.015491
Loading maneuver chart data...
Computing Atmospheric mass density...
Loading historical data...
Loading historical data...
Loading historical data...
Loading historical data...
Loading historical data...
Loading historical data...
Loading historical data...

Documentation

Showing up to 5 results
|